CW5234 Weather Reports


time (UTC)temp
F
wind
direction
speed
knots
gust
knots
rain 1hr
in
rain 24hr
in
rain mn
in
humidity
%
barometer
mb
20260506202316 63 156 0.0 1.7 0.00 0.13 0.13 88 1008.4
20260506201315 63 157 1.7 3.5 0.00 0.13 0.13 88 1008.2
20260506200414 63 134 1.7 4.3 0.00 0.13 0.13 88 1008.5
20260506195415 63 157 0.9 0.9 0.00 0.13 0.13 89 1008.5
20260506193415 62 210 0.9 2.6 0.00 0.13 0.13 92 1008.9
20260506192414 61 266 0.0 2.6 0.00 0.13 0.13 91 1009.1
20260506191415 61 202 0.0 0.9 0.00 0.13 0.13 91 1009.1
20260506185515 62 213 0.0 0.0 0.00 0.13 0.13 89 1009.3
20260506184516 62 94 1.7 4.3 0.00 0.13 0.13 90 1009.2
20260506183516 62 160 0.0 0.0 0.00 0.13 0.13 90 1009.2
20260506182515 62 135 0.9 0.9 0.00 0.13 0.13 89 1009.3
20260506181516 61 152 3.5 4.3 0.00 0.13 0.13 91 1009.3
20260506180514 61 160 0.0 2.6 0.00 0.13 0.13 91 1009.4
20260506175515 61 175 4.3 7.0 0.01 0.13 0.13 91 1009.6
20260506174515 61 181 1.7 3.5 0.01 0.13 0.13 91 1009.5
20260506173516 62 135 0.9 1.7 0.01 0.13 0.13 91 1009.9
20260506172514 62 219 0.0 1.7 0.01 0.13 0.13 90 1009.9
20260506170516 63 157 1.7 2.6 0.04 0.13 0.13 92 1009.6
20260506164614 61 200 0.0 0.0 0.06 0.12 0.12 92 1009.7
20260506164515 61 227 0.0 2.6 0.06 0.12 0.12 91 1009.9
20260506163515 61 175 2.6 2.6 0.08 0.12 0.12 92 1009.6
20260506162614 61 208 1.7 1.7 0.10 0.12 0.12 92 1010.3
20260506161615 61 202 0.0 0.0 0.09 0.11 0.11 90 1010.6
20260506160714 61 180 1.7 1.7 0.08 0.10 0.10 90 1010.8
20260506155716 61 157 0.0 0.0 0.07 0.08 0.08 88 1011.0
20260506154714 61 157 1.7 1.7 0.07 0.07 0.06 86 1010.9
20260506152715 62 202 0.0 0.0 0.03 0.03 0.02 84 1011.1
20260506152615 62 196 0.9 3.5 0.02 0.02 0.02 84 1011.0
20260506151614 62 156 0.0 0.9 0.02 0.02 0.02 83 1010.8
20260506150615 63 183 0.9 3.5 0.01 0.01 0.01 82 1010.8
20260506145714 63 157 0.0 0.9 0.01 0.01 0.01 79 1010.9
20260506144813 65 116 1.7 2.6 0.00 0.00 0.00 75 1011.0
20260506143814 66 156 0.9 3.5 0.00 0.00 0.00 72 1010.9
20260506142815 67 112 2.6 3.5 0.00 0.00 0.00 69 1011.0
20260506141814 67 178 0.9 3.5 0.00 0.00 0.00 68 1010.8
20260506140815 68 169 0.9 1.7 0.00 0.00 0.00 69 1010.8
20260506135816 67 159 3.5 9.6 0.00 0.00 0.00 70 1010.6
20260506134815 66 163 3.5 7.8 0.00 0.00 0.00 71 1010.9
20260506133815 66 179 0.9 1.7 0.00 0.00 0.00 72 1010.8
20260506131915 66 167 1.7 3.5 0.00 0.00 0.00 70 1010.9
20260506131817 66 176 2.6 5.2 0.00 0.00 0.00 71 1011.0
20260506130815 66 199 3.5 7.0 0.00 0.00 0.00 71 1010.9
20260506125815 66 197 0.9 1.7 0.00 0.00 0.00 72 1011.0
20260506124814 65 145 2.6 6.1 0.00 0.00 0.00 73 1011.0
20260506124715 65 132 4.3 7.8 0.00 0.00 0.00 73 1011.0
20260506122714 65 211 0.9 6.1 0.00 0.00 0.00 74 1010.9
20260506121715 64 188 1.7 7.8 0.00 0.00 0.00 75 1010.9
20260506120714 64 164 1.7 2.6 0.00 0.00 0.00 76 1011.0
20260506115715 64 248 0.9 2.6 0.00 0.00 0.00 76 1011.0
20260506113714 64 198 2.6 3.5 0.00 0.00 0.00 75 1010.9
20260506112714 64 218 2.6 5.2 0.00 0.00 0.00 76 1010.9
20260506111813 64 180 0.0 0.9 0.00 0.00 0.00 76 1011.0
20260506110815 64 134 1.7 5.2 0.00 0.00 0.00 77 1010.8
20260506104915 63 157 0.0 0.9 0.00 0.00 0.00 78 1010.8
20260506104014 63 217 0.0 0.9 0.00 0.00 0.00 78 1010.8
20260506103015 63 225 0.9 2.6 0.00 0.00 0.00 77 1010.7
20260506102015 63 202 0.0 0.9 0.00 0.00 0.00 79 1010.7
20260506100022 63 208 1.7 4.3 0.00 0.00 0.00 79 1010.8
20260506095017 63 180 0.0 0.9 0.00 0.00 0.00 78 1010.7
20260506094015 63 181 0.0 1.7 0.00 0.00 0.00 78 1010.6
20260506093014 63 211 0.0 1.7 0.00 0.00 0.00 78 1010.6
20260506092016 63 201 1.7 6.1 0.00 0.00 0.00 77 1010.7
20260506090113 63 225 0.0 0.9 0.00 0.00 0.00 78 1010.7
20260506085114 63 197 0.9 1.7 0.00 0.00 0.00 78 1010.9
20260506084115 63 183 0.9 2.6 0.00 0.00 0.00 78 1010.8
20260506083115 63 208 0.9 2.6 0.00 0.00 0.00 77 1010.8
20260506082116 64 180 0.9 1.7 0.00 0.00 0.00 77 1010.8
20260506081214 64 210 0.0 1.7 0.00 0.00 0.00 76 1010.8
20260506080214 64 180 0.0 0.9 0.00 0.00 0.00 76 1010.9
20260506072213 65 180 0.0 0.9 0.00 0.00 0.00 75 1010.9
20260506070314 65 247 0.0 0.9 0.00 0.00 0.00 73 1011.0
20260506062514 66 180 0.0 0.9 0.00 0.00 0.00 71 1011.4
20260506061515 66 217 1.7 2.6 0.00 0.00 0.00 70 1011.4
20260506060514 66 180 0.0 0.9 0.00 0.00 0.00 70 1011.3
20260506044615 67 201 4.3 7.0 0.00 0.00 0.00 65 1011.9
20260506043713 67 157 0.0 0.9 0.00 0.00 0.00 64 1011.9
20260506042715 67 202 0.0 0.0 0.00 0.00 0.00 63 1011.8
20260506041714 67 157 0.0 0.9 0.00 0.00 0.00 62 1011.8
20260506035723 68 225 1.7 3.5 0.00 0.00 0.00 61 1011.7
20260506034721 68 181 2.6 5.2 0.00 0.00 0.00 61 1011.7
20260506033723 68 224 0.9 2.6 0.00 0.00 0.00 60 1011.7
20260506032721 67 174 0.0 0.9 0.00 0.00 0.00 61 1011.7
20260506031722 68 202 0.0 0.9 0.00 0.00 0.00 60 1011.6
20260506030721 68 225 0.0 0.0 0.00 0.00 0.00 60 1011.6
20260506025820 68 217 0.9 1.7 0.00 0.00 0.00 59 1011.7
20260506024920 68 180 0.0 0.0 0.00 0.00 0.00 59 1011.8
20260506023921 68 228 3.5 6.1 0.00 0.00 0.00 59 1011.8
20260506022922 69 225 0.0 0.9 0.00 0.00 0.00 58 1011.8
20260506021920 69 187 0.9 1.7 0.00 0.00 0.00 56 1011.8
20260506020921 70 207 2.6 5.2 0.00 0.00 0.00 55 1011.7
20260506015920 70 188 0.0 0.9 0.00 0.00 0.00 53 1011.8
20260506013924 71 178 2.6 3.5 0.00 0.00 0.00 48 1011.5
20260506011020 73 277 0.9 2.6 0.00 0.00 0.00 44 1011.2
20260506010021 74 263 0.0 0.9 0.00 0.00 0.00 43 1010.9
20260506005120 74 225 0.0 0.9 0.00 0.00 0.00 43 1011.0
20260506004123 74 168 1.7 2.6 0.00 0.00 0.00 42 1010.7
20260506003121 74 180 0.0 0.9 0.00 0.00 0.00 43 1010.7
20260506002220 75 157 0.0 1.7 0.00 0.00 0.00 43 1010.7
20260506001223 75 189 1.7 5.2 0.00 0.00 0.00 43 1010.5
20260506000222 75 179 2.6 4.3 0.00 0.00 0.00 41 1010.4
20260505235221 75 173 1.7 6.1 0.00 0.00 0.00 42 1010.2
20260505234221 76 135 0.0 1.7 0.00 0.00 0.00 41 1010.3
20260505233221 77 180 0.9 3.5 0.00 0.00 0.00 39 1010.3
20260505231221 78 172 0.9 4.3 0.00 0.00 0.00 36 1010.1
20260505225220 79 144 0.9 3.5 0.00 0.00 0.00 34 1009.9
20260505221421 80 130 0.9 3.5 0.00 0.00 0.00 31 1009.6
20260505220421 81 148 4.3 7.0 0.00 0.00 0.00 31 1009.9
20260505215422 81 205 0.0 0.9 0.00 0.00 0.00 30 1009.7
20260505214420 82 190 3.5 9.6 0.00 0.00 0.00 28 1009.5
20260505213422 82 146 3.5 6.1 0.00 0.00 0.00 29 1009.3
20260505212421 83 162 3.5 9.6 0.00 0.00 0.00 28 1009.2
20260505210420 83 125 0.9 1.7 0.00 0.00 0.00 27 1009.6
20260505205423 83 203 6.1 9.6 0.00 0.00 0.00 26 1009.2
20260505204419 84 178 2.6 7.0 0.00 0.00 0.00 26 1009.2
20260505202424 84 245 4.3 11.3 0.00 0.00 0.00 27 1009.2